229  
ASUS43 KOAX 200610  
RWRNE  
 
WEATHER ROUNDUP FOR NEBRASKA  
NATIONAL WEATHER SERVICE OMAHA NE  
100 AM CDT WED OCT 20 2021  
 
NOTES: SATELLITE DATA IS BEING USED TO AUGMENT CLOUD COVER ABOVE  
12000 FEET.  
"FAIR" INDICATES FEW OR NO CLOUDS BELOW 12,000 FEET WITH NO  
SIGNIFICANT WEATHER AND/OR S TO VISIBILITY
.  
 
 
NEZ001>004-019>022-054>056-200700-  
NEBRASKA PANHANDLE  
 
CITY SKY/WX TMP DP RH WIND PRES REMARKS
 
SCOTTSBLUFF FLURRIES 36 32 85 NW9 30.14S WCI 29  
6HR MIN TEMP: 36; 6HR MAX TEMP: 41; 6HR PCP: 0.09;  
 
ALLIANCE CLOUDY 34 33 96 N13 30.10R WCI 25  
6HR MIN TEMP: 34; 6HR MAX TEMP: 39; 6HR PCP: 0.08;  
 
CHADRON CLOUDY 35 32 88 N9 30.13S WCI 28  
6HR MIN TEMP: 35; 6HR MAX TEMP: 39; 6HR PCP: 0.11;  
 
GORDON CLOUDY 36 34 93 N14 30.08R WCI 27  
6HR MIN TEMP: 36; 6HR MAX TEMP: 40; 6HR PCP: 0.02;  
 
KIMBALL CLOUDY 34 33 95 NW12G18 30.12R WCI 26  
SIDNEY CLOUDY 36 34 92 NW17 30.09R WCI 26  
6HR MIN TEMP: 36; 6HR MAX TEMP: 38;  
 

 
 
NEZ057>060-069>072-079>082-200700-  
SOUTHWEST NEBRASKA  
 
CITY SKY/WX TMP DP RH WIND PRES REMARKS
 
NORTH PLATTE CLOUDY 48 42 80 N10G21 30.00R  
6HR MIN TEMP: 48; 6HR MAX TEMP: 65; 6HR PCP: TRACE;  
 
IMPERIAL PTCLDY 42 37 82 NW17G25 30.04S  
6HR MIN TEMP: 42; 6HR MAX TEMP: 50;  
 
LEXINGTON CLOUDY 50 46 87 NW21G26 29.93R  
MCCOOK MOCLDY 49 43 80 NW17 29.98R  
6HR MIN TEMP: 49; 6HR MAX TEMP: 75; 6HR PCP: TRACE;  
 
OGALLALA CLOUDY 44 38 81 NW17G23 30.06R  

 
 
NEZ005>010-023>029-035>040-094-200700-  
NORTH CENTRAL NEBRASKA  
 
CITY SKY/WX TMP DP RH WIND PRES REMARKS
 
VALENTINE CLOUDY 43 39 86 N12 30.02S  
6HR MIN TEMP: 43; 6HR MAX TEMP: 50; 6HR PCP: 0.17;  
 
AINSWORTH CLOUDY 42 40 95 N16G22 29.99S FOG  
BROKEN BOW CLOUDY 48 45 89 N16G25 29.92R  
6HR MIN TEMP: 48; 6HR MAX TEMP: 67; 6HR PCP: 0.01;  
 
O'NEILL LGT RAIN 47 45 94 N17 29.95R  
ORD CLOUDY 50 47 89 N13 29.88F  
6HR MIN TEMP: 50; 6HR MAX TEMP: 63; 6HR PCP: 0.09;  
 
THEDFORD CLOUDY 42 40 93 N14 30.01R  

 
 
NEZ041-046>049-061>064-073>077-083>087-200700-  
SOUTH CENTRAL NEBRASKA  
 
CITY SKY/WX TMP DP RH WIND PRES REMARKS
 
GRAND ISLAND PTCLDY 61 54 77 CALM 29.84S  
6HR MIN TEMP: 60; 6HR MAX TEMP: 68; 6HR PCP: TRACE;  
 
AURORA PTCLDY 60 54 80 SE6 29.82F  
HASTINGS PTCLDY 61 55 81 S5 29.83S  
6HR MIN TEMP: 61; 6HR MAX TEMP: 69;  
 
HEBRON CLEAR 65 58 77 S13G18 29.83F  
HOLDREGE CLEAR 51 48 90 NW17G24 29.87F  
KEARNEY CLOUDY 55 52 88 NW17G28 29.87R  
YORK CLEAR 59 54 82 SE6 29.83S  

 
 
NEZ011>018-030>034-042>045-200700-  
NORTHEAST NEBRASKA  
 
CITY SKY/WX TMP DP RH WIND PRES REMARKS
 
NORFOLK LGT RAIN 58 52 80 NW8 29.87R  
6HR MIN TEMP: 58; 6HR MAX TEMP: 69; 6HR PCP: TRACE;  
 
ALBION CLOUDY 52 51 98 NW13 29.88R  
BLAIR PTCLDY 63 54 71 S12 29.87F  
COLUMBUS PTCLDY 62 56 80 SW6 29.87R  
FREMONT CLEAR 60 54 80 E5 29.86F  
TEKAMAH PTCLDY 61 52 72 SE9 29.87F  
6HR MIN TEMP: 55; 6HR MAX TEMP: 70;  
 
WAYNE CLOUDY 64 54 69 SE12 29.84S  

 
 
NEZ050>053-065>068-078-088>093-200700-  
SOUTHEAST NEBRASKA  
 
CITY SKY/WX TMP DP RH WIND PRES REMARKS
 
LINCOLN CLEAR 63 54 72 SE10 29.85F  
6HR MIN TEMP: 60; 6HR MAX TEMP: 73;  
 
OMAHA EPPLEY PTCLDY 66 54 65 S14 29.88S  
6HR MIN TEMP: 62; 6HR MAX TEMP: 72;  
 
BEATRICE CLEAR 64 55 72 S9G16 29.86F  
FALLS CITY PTCLDY 65 52 62 S12 29.90S  
6HR MIN TEMP: 64; 6HR MAX TEMP: 70;  
 
NEBRASKA CITY PTCLDY 63 53 70 S9 29.90R  
PLATTSMOUTH PTCLDY 62 54 74 SE9 29.89S  

 
 
NEZ044-045-051>053-067-200700-  
OMAHA AREA  
 
CITY SKY/WX TMP DP RH WIND PRES REMARKS
 
OMAHA EPPLEY PTCLDY 66 54 65 S14 29.88S  
6HR MIN TEMP: 62; 6HR MAX TEMP: 72;  
 
BLAIR PTCLDY 63 54 71 S12 29.87F  
FREMONT CLEAR 60 54 80 E5 29.86F  
MILLARD CLEAR 62 54 73 SE8 29.87F  
OFFUTT AFB PTCLDY 64 53 66 S9 29.90S  
PLATTSMOUTH PTCLDY 62 54 74 SE9 29.89S  
WAHOO CLEAR 59 55 85 SE10 29.85F  

 
 
 
CLICK HERE TO GO TO PREVIOUS BULLETINS.

The Nexlab NE Page Main Text Page